Lapse_Rate
3.3 3.1 3.7 3.9 4.4 4.9 4.2 3.9 3.9 3.9 3.9 3.9 4.1 4.6 4.8 4.7 4.6 4.6 4.6 4.9 5.0 4.9 5.0 5.1 4.9 5.1 5.4
4.8 4.2 3.7 4.0 4.3 4.6 5.0 4.4 4.2 4.3 4.2 4.1 4.3 4.6 4.9 4.9 4.9 4.8 4.7 4.7 5.1 5.2 5.2 5.0 4.9 5.0 5.2
5.6 5.2 5.0 4.6 4.6 4.7 4.8 5.3 4.8 4.7 4.6 4.5 4.3 4.6 4.9 5.1 5.3 5.2 5.1 5.1 5.0 5.2 5.4 5.4 5.5 5.6 5.7
5.8 5.5 5.2 5.0 4.7 4.5 4.9 5.2 5.4 5.0 5.0 4.9 4.7 4.6 4.8 5.1 5.1 5.5 5.5 5.1 5.1 5.2 5.4 5.8 5.8 5.9 5.8
6.4 6.3 6.2 5.9 5.4 5.1 4.7 4.9 5.3 5.4 5.2 5.0 5.0 4.8 4.8 4.9 5.1 5.3 5.5 5.7 5.5 5.4 5.5 5.6 5.7 5.9 6.1
6.9 6.6 6.6 6.5 6.4 5.8 5.3 5.0 4.9 5.3 5.3 5.3 5.1 5.1 4.9 4.8 5.0 5.2 5.4 5.5 5.8 5.9 5.7 5.7 5.8 5.9 6.0
7.2 7.4 7.3 7.2 6.9 6.7 6.1 5.5 5.3 5.3 5.2 5.3 5.3 5.1 5.1 5.0 4.9 5.1 5.3 5.5 5.6 5.8 5.9 5.9 5.9 6.1 6.1
7.4 7.9 8.0 7.9 7.6 7.5 6.9 6.3 6.0 5.8 5.5 5.3 5.4 5.1 4.9 5.1 5.1 5.1 5.4 5.5 5.5 5.7 5.9 5.9 5.9 6.0 6.3
8.1 8.2 8.2 8.2 8.3 8.1 7.6 6.9 6.6 6.7 6.2 5.5 5.8 5.4 5.1 5.0 5.0 5.0 5.1 5.6 5.5 5.7 5.9 6.0 5.9 5.9 6.2
8.4 8.3 8.4 8.5 8.4 8.3 8.1 7.4 6.9 7.1 7.2 6.1 5.9 5.8 5.5 5.2 5.0 5.0 5.0 5.0 5.2 5.4 5.6 6.1 6.1 6.1 6.2
8.3 8.4 8.3 8.4 8.5 8.5 8.4 8.1 7.7 7.7 7.7 7.0 6.7 6.1 5.6 5.5 5.2 5.0 4.7 4.8 4.8 5.0 5.3 5.7 5.9 6.0 6.1
8.0 8.2 8.1 8.2 8.2 8.2 8.2 8.2 8.1 8.0 8.2 7.3 7.2 6.8 6.1 5.6 5.4 5.2 4.6 4.7 4.2 4.5 4.8 5.2 5.7 5.9 6.1
7.7 8.0 8.1 8.0 7.9 8.0 8.1 8.1 8.0 7.9 8.2 7.8 7.6 7.1 6.5 6.0 5.6 5.5 5.1 4.7 4.3 4.5 4.4 4.4 4.7 5.5 5.8
7.7 8.1 8.1 8.1 8.0 8.0 8.0 8.1 8.2 8.1 8.1 7.9 7.6 7.5 6.8 6.3 5.8 5.6 5.3 5.1 4.5 4.3 4.2 4.2 4.2 4.8 5.6
7.7 8.0 8.1 8.0 8.0 8.0 7.9 8.0 7.9 8.1 8.2 8.1 7.7 7.4 7.0 6.2 5.9 5.7 5.5 5.1 4.9 4.4 4.1 4.2 4.5 4.3 4.8
7.7 7.8 7.9 8.0 8.0 7.9 7.9 7.8 7.6 7.6 7.7 7.9 7.7 7.5 6.7 6.3 5.8 6.1 5.6 5.3 5.2 4.6 4.3 4.0 4.4 4.4 5.0
7.6 7.5 7.8 7.9 7.7 7.5 7.5 7.3 7.2 7.1 7.1 7.2 7.2 7.1 6.8 6.1 6.1 5.7 6.1 5.8 5.6 4.9 4.4 4.3 4.6 4.3 4.7
Wind_Speed
10 11 15 14 14 15 17 17 17 16 16 17 18 19 17 16 15 14 14 13 12 14 16 16 19 17 18
13 10 12 14 14 13 11 18 16 16 16 17 17 18 19 17 16 16 15 13 12 12 13 14 18 18 18
13 10 10 10 12 12 10 11 13 13 13 13 13 15 18 19 18 17 15 15 13 14 15 17 19 19 20
10 11 10 11 9 10 10 7 7 9 11 12 14 14 15 17 17 15 16 15 15 15 15 17 19 19 20
9 9 10 9 10 8 9 10 10 8 8 7 5 4 6 8 13 15 16 16 17 17 17 18 17 19 20
11 12 15 9 8 8 8 8 8 3 3 7 6 7 7 10 11 14 17 18 18 17 18 18 17 19 21
15 15 14 12 10 10 9 8 8 7 6 8 6 8 8 11 14 17 17 17 18 17 17 17 19 19 16
13 14 13 12 11 11 11 10 8 7 6 8 7 8 8 11 17 19 17 17 16 14 16 18 18 16 15
22 23 21 21 14 7 8 8 9 8 4 6 5 7 7 8 9 14 17 17 13 13 13 11 10 11 11
9 14 18 15 18 12 8 8 7 6 2 3 4 4 4 5 3 5 5 7 5 7 10 11 10 5 4
9 8 8 9 7 7 8 7 6 7 5 3 2 4 4 6 7 6 2 3 3 3 5 9 8 6 3
7 8 7 7 7 7 9 8 8 8 8 5 3 4 6 6 7 6 6 3 3 3 2 7 9 8 9
7 7 7 8 7 4 6 6 6 8 12 8 7 7 8 8 7 8 7 2 3 2 3 3 2 2 2
7 7 5 4 6 5 4 4 4 6 9 10 9 10 10 8 7 11 9 5 1 3 4 4 3 3 3
7 7 7 7 7 6 5 5 7 7 7 5 5 9 9 9 8 9 10 7 6 7 3 3 4 3 3
7 7 7 7 6 5 5 6 8 8 8 6 3 4 4 8 17 11 8 8 7 6 4 3 4 3 3
8 7 7 7 8 7 4 5 7 8 8 6 6 7 9 11 7 19 7 5 6 6 5 4 3 1 1
Wind_Direction
275 271 285 288 287 278 278 282 279 273 278 275 269 259 254 263 271 264 250 243 252 264 268 265 266 264 262
283 278 265 286 284 280 276 275 272 273 274 277 273 264 253 249 260 260 249 244 252 254 266 265 263 267 264
277 280 272 274 282 276 271 270 266 267 275 279 278 271 260 247 248 252 251 260 247 250 258 265 264 259 256
267 276 272 270 264 278 285 271 278 286 273 272 276 273 265 252 247 250 256 255 258 262 266 263 260 263 259
264 270 267 266 262 277 282 290 286 272 275 278 281 290 281 276 256 253 250 250 254 261 269 270 269 271 265
261 260 261 259 265 267 274 280 290 271 300 289 297 288 279 274 266 260 261 262 257 262 264 268 264 276 273
250 251 258 255 256 263 260 263 271 279 298 292 294 289 289 279 265 264 263 261 265 267 266 266 270 267 269
257 255 249 250 241 255 260 262 269 269 275 281 294 283 288 285 277 269 263 261 264 266 274 272 262 262 267
259 257 255 250 238 242 247 245 255 265 257 282 284 304 300 287 274 279 271 263 255 268 268 257 260 273 266
248 259 256 246 242 242 253 246 250 279 277 242 304 321 309 284 305 331 341 294 272 291 292 277 267 260 259
246 253 253 240 235 230 229 224 222 245 243 294 264 275 252 289 291 306 287 282 277 267 281 288 285 265 263
248 248 248 236 229 224 225 221 223 237 257 234 257 258 267 275 279 297 292 228 235 255 284 292 285 282 255
240 242 240 240 241 212 219 224 227 235 258 242 244 259 257 257 267 277 280 279 273 259 264 255 283 302 306
247 245 239 224 228 226 229 227 250 251 245 243 242 246 251 250 264 270 263 250 175 250 240 254 261 251 259
248 246 239 230 227 204 215 218 240 249 247 231 232 247 241 243 250 253 265 252 236 244 202 247 261 243 249
242 243 244 233 225 201 206 232 247 245 240 246 229 257 245 242 230 252 245 250 233 218 202 218 256 231 233
234 230 233 238 245 226 206 215 238 248 239 245 244 221 243 253 254 214 247 233 224 207 194 196 203 179 277